Вернуться в каталог

KUIPER-00272

АктивенСвязьLEO
NORAD 68588·PAYLOAD·🇺🇸 United States

Запущен Apr 4, 2026 с Cape Canaveral Space Force Station

Loading…

Ближайшие Пролёты (ближайшие 24 часа)

TLE

СвежийSource: CelesTrak SupGP

Эпоха: Sep 14, 2026, 21:17 UTC

1 68588C 26072R   26257.88692130 -.00001336  00000+0 -17495-3 0  2571
2 68588  51.8969 156.4751 0000987  91.2564 341.5978 14.79929169    10

Отслеживайте KUIPER-00272 в реальном времени с AllMySat

Download on the App Store